Weather History for Branson, MO

Change the Weather History Date:

Wednesday, June 19, 2013

  Actual Average (KHRO) Record (KHRO)
Temperature  
Mean Temperature 72 °F 75 °F  
Max Temperature 86 °F 86 °F 102 °F (1953)
Min Temperature 59 °F 64 °F 42 °F (1912)
Degree Days  
Heating Degree Days 0 0  
Month to date heating degree days 3  
Since 1 June heating degree days 3  
Since 1 July heating degree days 4001  
Cooling Degree Days 8 10  
Month to date cooling degree days 146  
Year to date cooling degree days 285  
Since 1 June cooling degree days 146  
Growing Degree Days 22 (Base 50)    
Moisture  
Dew Point 60 °F    
Average Humidity 73    
Maximum Humidity 100    
Minimum Humidity 37    
Precipitation  
Precipitation 0.00 in 0.14 in 1.80 in (1987)
Month to date precipitation 2.75  
Year to date precipitation 20.75  
Snow  
Snow 0.00 in 0.00 in - ()
Month to date snowfall 0.0  
Since 1 June snowfall 0.0  
Since 1 July snowfall 11.5  
Snow Depth -    
Sea Level Pressure  
Sea Level Pressure 30.05 in    
Wind  
Wind Speed 2 mph (SSE)    
Max Wind Speed 7 mph    
Max Gust Speed -    
Visibility 10 miles    
Events      
T = Trace of Precipitation, MM = Missing Value Source: NWS Daily Summary

Daily Weather History Graph

Daily Weather History Graph

Search for Another Location

Airport:

Trip Planner

Search our weather history database for the weather conditions in past years. The results will help you decide how hot, cold, wet, or windy it might be!

Date:

Astronomy

Jun. 19, 2013 Rise Set
Actual Time 5:54 AM CDT 8:34 PM CDT
Civil Twilight 5:23 AM CDT 9:04 PM CDT
Nautical Twilight 4:45 AM CDT 9:42 PM CDT
Astronomical Twilight 4:03 AM CDT 10:25 PM CDT
Moon 4:31 PM CDT (6/19) 2:34 AM CDT (6/19)
Length of Visible Light 15h 40m
Length of Day
14h 39m
Waxing Gibbous, 80% of the Moon is Illuminated
Jun 19
Waxing Gibbous
Jun 23
Full
Jun 29
Last Quarter
Jul 8
New
Jul 15
First Quarter

Hourly Weather History & Observations

Time (CDT) Temp. Heat Index Dew Point Humidity Pressure Visibility Wind Dir Wind Speed Gust Speed Precip Events Conditions
12:15 AM 66.2 °F - 59.0 °F 78% 30.03 in 10.0 mi Calm Calm - N/A   Clear
12:35 AM 68.0 °F - 59.0 °F 73% 30.02 in 10.0 mi SSW 3.5 mph - N/A   Clear
12:55 AM 66.2 °F - 59.0 °F 78% 30.03 in 10.0 mi Calm Calm - N/A   Clear
1:15 AM 64.4 °F - 59.0 °F 83% 30.04 in 10.0 mi Calm Calm - N/A   Clear
1:35 AM 64.4 °F - 59.0 °F 83% 30.04 in 10.0 mi Calm Calm - N/A   Clear
1:55 AM 64.4 °F - 59.0 °F 83% 30.04 in 10.0 mi Calm Calm - N/A   Clear
2:15 AM 62.6 °F - 59.0 °F 88% 30.04 in 10.0 mi Calm Calm - N/A   Clear
2:35 AM 62.6 °F - 59.0 °F 88% 30.04 in 10.0 mi Calm Calm - N/A   Clear
2:55 AM 62.6 °F - 59.0 °F 88% 30.04 in 10.0 mi Calm Calm - N/A   Clear
3:15 AM 62.6 °F - 59.0 °F 88% 30.04 in 10.0 mi Calm Calm - N/A   Clear
3:35 AM 62.6 °F - 59.0 °F 88% 30.05 in 10.0 mi Calm Calm - N/A   Clear
3:55 AM 62.6 °F - 59.0 °F 88% 30.05 in 10.0 mi Calm Calm - N/A   Clear
4:15 AM 60.8 °F - 59.0 °F 94% 30.05 in 10.0 mi Calm Calm - N/A   Clear
4:35 AM 60.8 °F - 59.0 °F 94% 30.05 in 10.0 mi Calm Calm - N/A   Clear
4:55 AM 60.8 °F - 59.0 °F 94% 30.05 in 10.0 mi Calm Calm - N/A   Clear
5:15 AM 59.0 °F - 59.0 °F 100% 30.06 in 10.0 mi Calm Calm - N/A   Clear
5:35 AM 59.0 °F - 59.0 °F 100% 30.06 in 10.0 mi Calm Calm - N/A   Clear
5:55 AM 59.0 °F - 59.0 °F 100% 30.06 in 10.0 mi Calm Calm - N/A   Clear
6:15 AM 59.0 °F - 59.0 °F 100% 30.06 in 10.0 mi Calm Calm - N/A   Clear
6:35 AM 60.8 °F - 59.0 °F 94% 30.07 in 10.0 mi Calm Calm - N/A   Clear
6:45 AM 60.8 °F - 59.0 °F 94% 30.07 in 10.0 mi Calm Calm - N/A   Mostly Cloudy
7:45 AM 66.2 °F - 59.0 °F 78% 30.09 in 10.0 mi Calm Calm - N/A   Scattered Clouds
8:46 AM 73.4 °F - 59.0 °F 61% 30.09 in 10.0 mi Calm Calm - N/A   Scattered Clouds
9:45 AM 77.0 °F - 59.0 °F 54% 30.09 in 10.0 mi ESE 4.6 mph - N/A   Scattered Clouds
10:45 AM 78.8 °F - 60.8 °F 54% 30.10 in 10.0 mi East 4.6 mph - N/A   Mostly Cloudy
11:47 AM 82.4 °F 82.9 °F 60.8 °F 48% 30.09 in 10.0 mi SE 6.9 mph - N/A   Mostly Cloudy
12:45 PM 82.4 °F 82.9 °F 60.8 °F 48% 30.08 in 10.0 mi ESE 6.9 mph - N/A   Mostly Cloudy
1:45 PM 84.2 °F 83.8 °F 59.0 °F 42% 30.07 in 10.0 mi SE 5.8 mph - N/A   Mostly Cloudy
2:46 PM 86.0 °F 84.9 °F 57.2 °F 37% 30.06 in 10.0 mi SSE 6.9 mph - N/A   Mostly Cloudy
3:47 PM 86.0 °F 85.4 °F 59.0 °F 40% 30.05 in 10.0 mi South 6.9 mph - N/A   Mostly Cloudy
4:45 PM 86.0 °F 85.4 °F 59.0 °F 40% 30.04 in 10.0 mi SSE 6.9 mph - N/A   Mostly Cloudy
6:45 PM 82.4 °F 82.5 °F 59.0 °F 45% 30.02 in 10.0 mi SSE 6.9 mph - N/A   Mostly Cloudy
7:45 PM 80.6 °F 81.5 °F 60.8 °F 51% 30.04 in 10.0 mi SSE 4.6 mph - N/A   Mostly Cloudy
8:45 PM 77.0 °F - 62.6 °F 61% 30.03 in 10.0 mi SE 5.8 mph - N/A   Mostly Cloudy
9:15 PM 75.2 °F - 62.6 °F 65% 30.03 in 10.0 mi SE 6.9 mph - N/A   Clear
9:35 PM 75.2 °F - 62.6 °F 65% 30.04 in 10.0 mi SSE 5.8 mph - N/A   Clear
9:55 PM 75.2 °F - 64.4 °F 69% 30.04 in 10.0 mi SSE 5.8 mph - N/A   Clear
10:15 PM 75.2 °F - 64.4 °F 69% 30.05 in 10.0 mi SSE 4.6 mph - N/A   Clear
10:35 PM 73.4 °F - 64.4 °F 73% 30.06 in 10.0 mi South 3.5 mph - N/A   Clear
10:55 PM 73.4 °F - 64.4 °F 73% 30.07 in 10.0 mi SSE 4.6 mph - N/A   Clear
11:15 PM 73.4 °F - 62.6 °F 69% 30.07 in 10.0 mi SSE 4.6 mph - N/A   Clear
11:35 PM 73.4 °F - 62.6 °F 69% 30.07 in 10.0 mi SSE 4.6 mph - N/A   Clear
11:55 PM 73.4 °F - 62.6 °F 69% 30.08 in 10.0 mi South 4.6 mph - N/A   Clear